CZ-6A DEB, 54614

Orbit data source: Space-Track

CZ-6A DEB, 54614 is space debris in SSO originally from a launch on Fri, 11 Nov 2022 UTC launched from the Taiyaun Space Center, China (TSC). Debris objects in space refer to the collection of defunct objects orbiting the Earth. Examples of debris include non-operational satellites, rocket bodies, and fragments generated from explosions, collisions, or faulty payload assembly.

Loading next visibility...
Identifier
54614, 2022-151NQ
Orbit
SSO
Country
Flag of CNCN / PRC
Related business
Manufacturer
SAST
Mission
Spacecraft
Bus & Motor
Unknown
Mass
Unknown
Launch date (UTC)
2022-11-11 (4 years ago)
Launch vehicle
Unknown
Launch site
Taiyaun Space Center, China (TSC)
Object type
Payload
Rocket body
Debris
Shape & HBR
Unknown shape, 0.1 m
Radar Cross Section
Small (<0.1 m²)

Expand to show TLE details & history
Last TLE update: 14 hours ago

TLE from 14 hours ago
0 CZ-6A DEB
1 54614U 22151NQ  26236.21460803  .00085555  00000-0  42223-2 0  9997
2 54614  98.6312 335.2578 0025646 346.9626  13.0938 15.17240231130119
Epoch: 2026-08-24T05:09Z
TLE epoch observation values (Epoch: 2026-08-24T05:09:02.133Z)
Latitude
-0.00003°
Longitude
-74.5006°
Altitude
500.017 km
Speed
7.624 km/s
True Right ascension
22h 21m 01s
True Declination
0° 00' 00"
Sunlit
Object was in full shadow at epoch
Visualization orbit readout
Latitude
Unknown
Longitude
Unknown
Altitude
Unknown
Speed
Unknown
Apparent Right ascension
Unknown
Apparent Declination
Unknown
Sunlit
N/A
Visualization observer readout
Local Sidereal Time
10:17:35
Azimuth
Unknown
Elevation
Unknown
Doppler factor
Unknown
Orbital elements
Apogee altitude
528.88 km
Perigee altitude
493.543 km
Semi-major axis
6,889.349 km
Eccentricity
0.00256
Inclination
98.6312°
RAAN
335.2578°
Arg. of periapsis
346.9626°
True anomaly
13.16059°
Mean anomaly
13.0938°
Eccentric anomaly
13.12717°
Mean motion
3.79556 °/min
Orbital period
94.85 mins
BSTAR
0.0042223
Loading maneuver chart data...
Computing Atmospheric mass density...

Documentation

Showing up to 5 results
|